QPF
0.10 0.10 0.10 0.09 0.06 0.07 0.08 0.07 0.07 0.06 0.06 0.06 0.05 0.04 0.04 0.02 0.03 0.03 0.03 0.03 0.02 0.01 0.03 0.04 0.04 0.06 0.05 0.04 0.07 0.08 0.05 0.03 0.03 0.03 0.02 0.02 0.03 0.03 0.03 0.02 0.02 0.03 0.02
0.11 0.11 0.11 0.11 0.06 0.05 0.05 0.06 0.07 0.11 0.09 0.08 0.07 0.08 0.08 0.06 0.04 0.04 0.05 0.06 0.04 0.03 0.03 0.05 0.06 0.08 0.08 0.06 0.07 0.08 0.07 0.05 0.05 0.04 0.03 0.03 0.03 0.02 0.03 0.03 0.04 0.04 0.03
0.11 0.11 0.11 0.09 0.07 0.06 0.04 0.03 0.05 0.07 0.09 0.09 0.09 0.09 0.07 0.06 0.06 0.06 0.08 0.08 0.07 0.05 0.05 0.05 0.05 0.07 0.07 0.08 0.08 0.07 0.07 0.06 0.06 0.06 0.05 0.04 0.03 0.03 0.03 0.03 0.04 0.04 0.03
0.06 0.09 0.09 0.08 0.08 0.06 0.05 0.06 0.06 0.08 0.09 0.09 0.07 0.05 0.04 0.05 0.06 0.08 0.09 0.10 0.10 0.10 0.08 0.07 0.06 0.06 0.07 0.09 0.11 0.12 0.09 0.08 0.08 0.09 0.09 0.08 0.05 0.04 0.04 0.03 0.04 0.05 0.04
0.05 0.07 0.07 0.07 0.08 0.08 0.07 0.05 0.08 0.11 0.12 0.10 0.04 0.04 0.04 0.05 0.07 0.06 0.08 0.09 0.10 0.12 0.11 0.11 0.09 0.07 0.07 0.10 0.12 0.13 0.12 0.11 0.12 0.13 0.14 0.14 0.13 0.11 0.07 0.05 0.06 0.06 0.06
0.08 0.10 0.08 0.06 0.06 0.09 0.10 0.08 0.10 0.15 0.15 0.12 0.06 0.07 0.08 0.05 0.06 0.08 0.12 0.12 0.11 0.11 0.14 0.15 0.13 0.11 0.07 0.07 0.08 0.10 0.12 0.13 0.13 0.13 0.14 0.14 0.14 0.13 0.10 0.09 0.10 0.12 0.14
0.06 0.09 0.09 0.09 0.08 0.10 0.10 0.08 0.10 0.13 0.12 0.10 0.11 0.11 0.09 0.07 0.08 0.12 0.12 0.10 0.08 0.08 0.10 0.10 0.10 0.11 0.10 0.06 0.04 0.04 0.07 0.09 0.11 0.12 0.14 0.14 0.11 0.10 0.10 0.11 0.12 0.12 0.12
0.04 0.07 0.07 0.07 0.09 0.11 0.10 0.10 0.10 0.11 0.11 0.11 0.12 0.13 0.12 0.11 0.10 0.07 0.06 0.07 0.07 0.07 0.06 0.07 0.08 0.10 0.10 0.11 0.07 0.04 0.06 0.08 0.10 0.15 0.16 0.14 0.11 0.09 0.08 0.09 0.10 0.10 0.11
0.03 0.05 0.05 0.05 0.07 0.07 0.10 0.11 0.09 0.09 0.10 0.10 0.10 0.11 0.14 0.14 0.09 0.07 0.06 0.07 0.05 0.06 0.06 0.06 0.07 0.10 0.12 0.15 0.09 0.05 0.05 0.06 0.07 0.11 0.13 0.14 0.14 0.12 0.09 0.08 0.09 0.11 0.12
0.01 0.02 0.02 0.03 0.05 0.05 0.07 0.08 0.08 0.09 0.11 0.09 0.09 0.10 0.11 0.11 0.09 0.08 0.08 0.07 0.06 0.06 0.06 0.05 0.06 0.08 0.10 0.10 0.07 0.06 0.05 0.05 0.07 0.10 0.11 0.12 0.12 0.11 0.11 0.11 0.12 0.12 0.12
0.01 0.01 0.01 0.02 0.04 0.05 0.05 0.05 0.07 0.08 0.09 0.09 0.10 0.11 0.12 0.13 0.11 0.09 0.07 0.08 0.08 0.08 0.06 0.06 0.06 0.08 0.07 0.06 0.07 0.04 0.04 0.05 0.09 0.13 0.15 0.12 0.09 0.08 0.09 0.13 0.15 0.15 0.13
0.02 0.01 0.02 0.03 0.03 0.03 0.03 0.04 0.05 0.05 0.07 0.08 0.09 0.10 0.11 0.12 0.13 0.14 0.10 0.08 0.07 0.07 0.07 0.07 0.08 0.07 0.05 0.04 0.04 0.03 0.03 0.03 0.05 0.08 0.11 0.10 0.08 0.08 0.08 0.12 0.15 0.15 0.17
0.04 0.02 0.03 0.03 0.03 0.03 0.02 0.04 0.05 0.05 0.06 0.06 0.07 0.09 0.09 0.09 0.11 0.13 0.12 0.09 0.09 0.08 0.06 0.06 0.05 0.04 0.03 0.04 0.04 0.03 0.03 0.04 0.04 0.05 0.07 0.07 0.07 0.06 0.06 0.08 0.11 0.13 0.15
0.01 0.01 0.02 0.02 0.02 0.02 0.03 0.05 0.04 0.05 0.07 0.07 0.08 0.11 0.11 0.08 0.08 0.09 0.11 0.11 0.11 0.09 0.07 0.05 0.04 0.03 0.04 0.04 0.03 0.03 0.03 0.05 0.04 0.06 0.07 0.06 0.05 0.05 0.05 0.06 0.07 0.11 0.12
0.01 0.01 0.01 0.03 0.04 0.04 0.04 0.05 0.06 0.06 0.07 0.06 0.08 0.09 0.08 0.06 0.06 0.06 0.07 0.09 0.08 0.08 0.07 0.05 0.04 0.03 0.03 0.02 0.03 0.03 0.04 0.05 0.05 0.04 0.03 0.03 0.03 0.02 0.03 0.03 0.04 0.06 0.08
0.02 0.01 0.02 0.03 0.03 0.03 0.04 0.06 0.07 0.07 0.07 0.07 0.07 0.06 0.05 0.04 0.06 0.06 0.06 0.06 0.08 0.07 0.06 0.05 0.04 0.04 0.03 0.02 0.02 0.02 0.02 0.03 0.05 0.03 0.03 0.03 0.03 0.03 0.02 0.03 0.04 0.06 0.06
0.02 0.01 0.01 0.02 0.02 0.03 0.04 0.05 0.05 0.05 0.05 0.06 0.07 0.06 0.06 0.05 0.06 0.06 0.07 0.08 0.08 0.08 0.07 0.06 0.05 0.05 0.05 0.03 0.03 0.03 0.02 0.02 0.04 0.04 0.03 0.03 0.02 0.02 0.03 0.03 0.04 0.05 0.04
0.01 0.01 0.01 0.01 0.01 0.02 0.02 0.03 0.03 0.02 0.02 0.04 0.05 0.05 0.04 0.04 0.05 0.05 0.06 0.08 0.08 0.08 0.06 0.05 0.05 0.05 0.05 0.04 0.05 0.04 0.03 0.02 0.05 0.07 0.06 0.04 0.04 0.04 0.03 0.03 0.03 0.02 0.02
0.01 0.01 0.00 0.01 0.02 0.02 0.02 0.02 0.02 0.01 0.01 0.02 0.03 0.03 0.04 0.04 0.04 0.04 0.04 0.05 0.06 0.07 0.07 0.06 0.05 0.06 0.05 0.04 0.03 0.02 0.04 0.04 0.05 0.07 0.06 0.05 0.05 0.05 0.04 0.03 0.02 0.01 0.01
0.01 0.01 0.02 0.02 0.01 0.01 0.01 0.01 0.01 0.01 0.01 0.01 0.01 0.02 0.03 0.03 0.03 0.04 0.04 0.04 0.05 0.06 0.06 0.06 0.05 0.05 0.04 0.03 0.04 0.05 0.05 0.05 0.06 0.05 0.04 0.04 0.04 0.03 0.03 0.02 0.01 0.01 0.01
0.01 0.01 0.01 0.00 0.01 0.01 0.01 0.01 0.01 0.01 0.02 0.02 0.02 0.02 0.03 0.03 0.03 0.03 0.03 0.04 0.03 0.04 0.04 0.06 0.06 0.05 0.04 0.05 0.05 0.05 0.04 0.04 0.04 0.03 0.03 0.02 0.02 0.01 0.01 0.01 0.01 0.01 0.02
0.02 0.02 0.01 0.01 0.01 0.00 0.00 0.00 0.00 0.01 0.01 0.01 0.02 0.02 0.01 0.02 0.02 0.02 0.02 0.02 0.02 0.02 0.03 0.05 0.05 0.04 0.04 0.04 0.04 0.04 0.04 0.04 0.04 0.03 0.02 0.02 0.03 0.02 0.01 0.01 0.01 0.01 0.01
0.02 0.02 0.01 0.01 0.01 0.00 0.00 0.00 0.00 0.00 0.00 0.01 0.01 0.01 0.01 0.00 0.01 0.01 0.01 0.02 0.02 0.02 0.02 0.03 0.03 0.03 0.03 0.03 0.03 0.03 0.03 0.03 0.03 0.02 0.02 0.03 0.04 0.03 0.02 0.01 0.01 0.01 0.01
0.01 0.01 0.01 0.01 0.01 0.00 0.00 0.00 0.00 0.00 0.00 0.01 0.01 0.01 0.01 0.01 0.01 0.01 0.01 0.02 0.02 0.02 0.02 0.03 0.03 0.03 0.03 0.03 0.03 0.02 0.03 0.03 0.04 0.03 0.02 0.02 0.02 0.02 0.02 0.02 0.01 0.01 0.01
0.01 0.01 0.01 0.01 0.01 0.00 0.00 0.00 0.00 0.00 0.00 0.01 0.01 0.01 0.01 0.01 0.01 0.00 0.01 0.02 0.03 0.04 0.04 0.04 0.03 0.03 0.03 0.02 0.02 0.02 0.02 0.02 0.03 0.02 0.01 0.02 0.02 0.02 0.03 0.02 0.01 0.01 0.00
0.01 0.01 0.01 0.01 0.00 0.00 0.00 0.00 0.00 0.00 0.01 0.01 0.01 0.01 0.00 0.00 0.00 0.00 0.01 0.02 0.03 0.04 0.05 0.05 0.04 0.03 0.02 0.02 0.01 0.01 0.02 0.02 0.01 0.01 0.01 0.01 0.02 0.02 0.03 0.03 0.02 0.01 0.01
MSLP
1014.53 1014.60 1014.61 1014.58 1014.53 1014.47 1014.43 1014.38 1014.33 1014.26 1014.16 1014.04 1013.91 1013.81 1013.78 1013.85 1014.06 1014.41 1014.87 1015.41 1015.96 1016.48 1016.92 1017.25 1017.46 1017.58 1017.64 1017.68 1017.74 1017.83 1017.97 1018.17 1018.40 1018.66 1018.93 1019.18 1019.40 1019.59 1019.75 1019.87 1019.96 1020.04 1020.10
1014.57 1014.62 1014.60 1014.55 1014.48 1014.41 1014.36 1014.32 1014.28 1014.23 1014.16 1014.06 1013.95 1013.84 1013.78 1013.78 1013.90 1014.13 1014.47 1014.91 1015.39 1015.87 1016.32 1016.70 1017.01 1017.23 1017.39 1017.51 1017.62 1017.75 1017.90 1018.08 1018.30 1018.54 1018.79 1019.04 1019.27 1019.47 1019.64 1019.76 1019.86 1019.93 1020.00
1014.58 1014.59 1014.56 1014.50 1014.43 1014.36 1014.32 1014.29 1014.27 1014.24 1014.19 1014.11 1013.99 1013.85 1013.72 1013.64 1013.63 1013.71 1013.91 1014.21 1014.59 1015.03 1015.49 1015.93 1016.33 1016.67 1016.96 1017.20 1017.40 1017.58 1017.75 1017.93 1018.13 1018.34 1018.56 1018.79 1019.01 1019.21 1019.38 1019.52 1019.63 1019.72 1019.81
1014.52 1014.50 1014.46 1014.41 1014.35 1014.31 1014.28 1014.28 1014.28 1014.26 1014.22 1014.13 1013.99 1013.81 1013.61 1013.42 1013.27 1013.21 1013.25 1013.41 1013.69 1014.06 1014.51 1015.00 1015.50 1015.97 1016.39 1016.75 1017.05 1017.30 1017.50 1017.69 1017.86 1018.03 1018.22 1018.41 1018.61 1018.81 1018.98 1019.14 1019.28 1019.39 1019.50
1014.38 1014.35 1014.31 1014.28 1014.26 1014.25 1014.26 1014.27 1014.29 1014.28 1014.23 1014.12 1013.95 1013.72 1013.44 1013.16 1012.89 1012.69 1012.60 1012.63 1012.80 1013.12 1013.56 1014.08 1014.65 1015.22 1015.76 1016.23 1016.62 1016.93 1017.16 1017.34 1017.48 1017.61 1017.75 1017.91 1018.09 1018.27 1018.46 1018.64 1018.81 1018.96 1019.10
1014.20 1014.16 1014.14 1014.14 1014.16 1014.20 1014.24 1014.28 1014.31 1014.30 1014.23 1014.10 1013.90 1013.62 1013.29 1012.94 1012.59 1012.29 1012.09 1012.03 1012.12 1012.38 1012.79 1013.32 1013.93 1014.57 1015.18 1015.73 1016.18 1016.52 1016.76 1016.92 1017.03 1017.12 1017.21 1017.33 1017.48 1017.66 1017.86 1018.07 1018.27 1018.46 1018.63
1014.01 1013.97 1013.97 1014.02 1014.09 1014.18 1014.26 1014.33 1014.35 1014.33 1014.25 1014.10 1013.87 1013.57 1013.22 1012.84 1012.45 1012.11 1011.86 1011.74 1011.78 1011.98 1012.35 1012.87 1013.48 1014.13 1014.76 1015.33 1015.80 1016.14 1016.37 1016.50 1016.56 1016.60 1016.65 1016.73 1016.86 1017.04 1017.25 1017.48 1017.71 1017.93 1018.12
1013.88 1013.83 1013.87 1013.96 1014.09 1014.22 1014.34 1014.42 1014.45 1014.42 1014.32 1014.14 1013.91 1013.62 1013.28 1012.91 1012.55 1012.22 1011.97 1011.83 1011.84 1012.00 1012.33 1012.80 1013.37 1013.98 1014.58 1015.12 1015.55 1015.86 1016.05 1016.13 1016.14 1016.14 1016.14 1016.20 1016.31 1016.48 1016.70 1016.95 1017.20 1017.43 1017.63
1013.84 1013.80 1013.85 1013.98 1014.16 1014.33 1014.48 1014.58 1014.60 1014.56 1014.44 1014.27 1014.04 1013.78 1013.49 1013.18 1012.88 1012.61 1012.40 1012.28 1012.28 1012.42 1012.70 1013.10 1013.60 1014.14 1014.66 1015.13 1015.50 1015.74 1015.87 1015.90 1015.86 1015.81 1015.78 1015.80 1015.90 1016.06 1016.28 1016.53 1016.78 1017.00 1017.18
1013.90 1013.86 1013.94 1014.10 1014.30 1014.50 1014.67 1014.78 1014.80 1014.75 1014.62 1014.45 1014.25 1014.03 1013.80 1013.58 1013.36 1013.18 1013.04 1012.97 1012.99 1013.12 1013.35 1013.69 1014.09 1014.54 1014.97 1015.34 1015.63 1015.80 1015.86 1015.84 1015.76 1015.66 1015.60 1015.60 1015.67 1015.81 1016.01 1016.25 1016.48 1016.67 1016.82
1014.05 1014.00 1014.08 1014.26 1014.48 1014.70 1014.88 1014.99 1015.01 1014.94 1014.82 1014.66 1014.48 1014.30 1014.14 1014.00 1013.89 1013.80 1013.74 1013.74 1013.79 1013.91 1014.11 1014.38 1014.71 1015.06 1015.40 1015.69 1015.90 1016.00 1016.01 1015.94 1015.83 1015.71 1015.62 1015.59 1015.63 1015.75 1015.92 1016.11 1016.30 1016.45 1016.54
1014.22 1014.17 1014.25 1014.42 1014.65 1014.88 1015.06 1015.16 1015.18 1015.11 1014.98 1014.82 1014.66 1014.53 1014.43 1014.36 1014.33 1014.32 1014.35 1014.40 1014.49 1014.62 1014.80 1015.04 1015.31 1015.59 1015.86 1016.08 1016.23 1016.30 1016.28 1016.18 1016.05 1015.91 1015.80 1015.75 1015.76 1015.84 1015.97 1016.11 1016.24 1016.33 1016.34
1014.39 1014.33 1014.40 1014.56 1014.78 1014.99 1015.17 1015.26 1015.27 1015.20 1015.07 1014.91 1014.77 1014.65 1014.59 1014.57 1014.59 1014.65 1014.73 1014.83 1014.96 1015.11 1015.29 1015.51 1015.75 1016.00 1016.24 1016.43 1016.56 1016.61 1016.58 1016.49 1016.36 1016.22 1016.10 1016.03 1016.02 1016.06 1016.14 1016.22 1016.28 1016.29 1016.23
1014.51 1014.44 1014.49 1014.64 1014.83 1015.04 1015.20 1015.28 1015.28 1015.20 1015.07 1014.91 1014.77 1014.66 1014.60 1014.60 1014.65 1014.74 1014.85 1014.99 1015.14 1015.31 1015.51 1015.74 1015.98 1016.23 1016.46 1016.66 1016.80 1016.87 1016.86 1016.80 1016.68 1016.56 1016.44 1016.36 1016.33 1016.34 1016.37 1016.40 1016.40 1016.34 1016.21
1014.58 1014.51 1014.54 1014.66 1014.84 1015.02 1015.16 1015.24 1015.23 1015.15 1015.01 1014.84 1014.69 1014.57 1014.50 1014.49 1014.53 1014.62 1014.74 1014.89 1015.06 1015.26 1015.48 1015.72 1015.99 1016.26 1016.53 1016.75 1016.93 1017.03 1017.06 1017.03 1016.95 1016.85 1016.75 1016.68 1016.63 1016.62 1016.62 1016.61 1016.57 1016.46 1016.26
1014.63 1014.56 1014.58 1014.67 1014.82 1014.98 1015.11 1015.18 1015.17 1015.08 1014.93 1014.76 1014.58 1014.44 1014.35 1014.31 1014.32 1014.39 1014.50 1014.64 1014.82 1015.02 1015.26 1015.54 1015.83 1016.14 1016.44 1016.70 1016.92 1017.07 1017.14 1017.16 1017.11 1017.04 1016.97 1016.91 1016.87 1016.86 1016.85 1016.82 1016.76 1016.62 1016.40
1014.69 1014.62 1014.63 1014.71 1014.84 1014.98 1015.09 1015.15 1015.13 1015.04 1014.89 1014.71 1014.52 1014.35 1014.22 1014.15 1014.12 1014.15 1014.23 1014.35 1014.52 1014.73 1014.98 1015.27 1015.58 1015.92 1016.24 1016.54 1016.79 1016.97 1017.08 1017.13 1017.12 1017.09 1017.05 1017.01 1017.00 1017.00 1017.01 1017.00 1016.94 1016.81 1016.59
1014.78 1014.72 1014.74 1014.81 1014.92 1015.05 1015.14 1015.19 1015.17 1015.08 1014.93 1014.74 1014.54 1014.34 1014.18 1014.07 1014.00 1013.99 1014.03 1014.13 1014.27 1014.46 1014.71 1014.99 1015.31 1015.65 1015.98 1016.29 1016.55 1016.75 1016.88 1016.96 1016.98 1016.98 1016.97 1016.97 1016.99 1017.03 1017.07 1017.10 1017.08 1016.99 1016.81
1014.91 1014.88 1014.90 1014.98 1015.09 1015.20 1015.29 1015.33 1015.30 1015.21 1015.05 1014.85 1014.64 1014.43 1014.24 1014.09 1013.99 1013.94 1013.94 1014.00 1014.11 1014.27 1014.49 1014.75 1015.05 1015.37 1015.68 1015.98 1016.22 1016.42 1016.56 1016.64 1016.68 1016.70 1016.73 1016.77 1016.83 1016.92 1017.02 1017.10 1017.15 1017.13 1017.01
1015.07 1015.07 1015.12 1015.21 1015.32 1015.43 1015.51 1015.54 1015.50 1015.40 1015.23 1015.03 1014.80 1014.58 1014.37 1014.19 1014.05 1013.97 1013.93 1013.95 1014.02 1014.14 1014.32 1014.54 1014.79 1015.07 1015.34 1015.60 1015.82 1015.99 1016.11 1016.20 1016.25 1016.30 1016.35 1016.43 1016.54 1016.69 1016.84 1017.00 1017.12 1017.17 1017.14
1015.24 1015.29 1015.37 1015.48 1015.60 1015.71 1015.78 1015.79 1015.74 1015.62 1015.44 1015.22 1014.98 1014.74 1014.50 1014.30 1014.14 1014.02 1013.94 1013.92 1013.94 1014.02 1014.14 1014.30 1014.50 1014.71 1014.93 1015.14 1015.31 1015.46 1015.57 1015.65 1015.71 1015.78 1015.86 1015.98 1016.14 1016.33 1016.55 1016.77 1016.97 1017.11 1017.17
1015.40 1015.50 1015.62 1015.76 1015.90 1016.01 1016.07 1016.06 1015.99 1015.84 1015.64 1015.39 1015.13 1014.86 1014.61 1014.38 1014.18 1014.03 1013.91 1013.84 1013.82 1013.83 1013.89 1013.99 1014.12 1014.27 1014.42 1014.58 1014.71 1014.83 1014.93 1015.01 1015.09 1015.18 1015.30 1015.45 1015.65 1015.89 1016.16 1016.44 1016.70 1016.93 1017.08
1015.56 1015.70 1015.87 1016.05 1016.20 1016.32 1016.37 1016.34 1016.23 1016.05 1015.81 1015.53 1015.23 1014.93 1014.64 1014.38 1014.15 1013.96 1013.80 1013.68 1013.60 1013.55 1013.54 1013.57 1013.62 1013.70 1013.80 1013.91 1014.01 1014.11 1014.20 1014.29 1014.40 1014.52 1014.67 1014.87 1015.10 1015.38 1015.70 1016.02 1016.34 1016.63 1016.88
1015.73 1015.92 1016.14 1016.35 1016.53 1016.65 1016.69 1016.63 1016.49 1016.27 1015.98 1015.65 1015.31 1014.96 1014.63 1014.33 1014.06 1013.82 1013.61 1013.43 1013.28 1013.16 1013.08 1013.03 1013.02 1013.03 1013.08 1013.14 1013.22 1013.30 1013.40 1013.52 1013.65 1013.82 1014.01 1014.25 1014.52 1014.84 1015.18 1015.55 1015.91 1016.26 1016.57
1015.96 1016.20 1016.46 1016.71 1016.91 1017.03 1017.05 1016.97 1016.79 1016.52 1016.18 1015.80 1015.41 1015.01 1014.63 1014.28 1013.95 1013.66 1013.39 1013.14 1012.93 1012.73 1012.57 1012.45 1012.35 1012.30 1012.29 1012.31 1012.36 1012.45 1012.56 1012.70 1012.87 1013.08 1013.32 1013.60 1013.91 1014.26 1014.64 1015.03 1015.43 1015.81 1016.18
1016.29 1016.58 1016.88 1017.15 1017.37 1017.49 1017.49 1017.38 1017.16 1016.84 1016.46 1016.03 1015.58 1015.13 1014.70 1014.30 1013.92 1013.56 1013.23 1012.92 1012.62 1012.35 1012.10 1011.89 1011.72 1011.59 1011.51 1011.48 1011.51 1011.58 1011.70 1011.86 1012.06 1012.31 1012.59 1012.91 1013.26 1013.65 1014.05 1014.47 1014.89 1015.31 1015.71
Thickness
5765 5766 5765 5766 5767 5767 5767 5767 5767 5768 5768 5769 5769 5769 5769 5768 5767 5765 5761 5758 5757 5756 5754 5752 5750 5748 5747 5745 5743 5741 5739 5737 5736 5734 5732 5731 5729 5728 5726 5725 5723 5722 5720
5766 5766 5766 5766 5767 5768 5768 5768 5768 5768 5767 5768 5768 5768 5768 5767 5766 5764 5761 5758 5757 5756 5754 5752 5750 5749 5747 5745 5743 5741 5740 5738 5736 5734 5733 5731 5729 5727 5726 5724 5723 5721 5720
5766 5766 5766 5766 5767 5768 5768 5769 5768 5768 5767 5768 5767 5767 5766 5766 5764 5763 5761 5759 5757 5755 5754 5752 5750 5749 5748 5746 5743 5742 5740 5738 5736 5734 5733 5731 5729 5727 5725 5724 5722 5721 5719
5768 5768 5768 5768 5768 5769 5769 5768 5768 5767 5766 5765 5765 5765 5765 5765 5764 5762 5761 5759 5757 5755 5753 5751 5750 5749 5747 5746 5744 5742 5740 5738 5737 5735 5733 5731 5729 5727 5725 5723 5722 5720 5719
5770 5769 5769 5769 5769 5770 5769 5769 5767 5766 5763 5763 5763 5764 5764 5764 5763 5762 5760 5759 5757 5755 5752 5750 5749 5748 5746 5745 5743 5742 5740 5738 5736 5735 5732 5730 5729 5727 5725 5723 5722 5720 5718
5771 5770 5770 5770 5770 5769 5768 5768 5766 5765 5764 5763 5763 5762 5762 5763 5762 5761 5759 5758 5756 5754 5752 5750 5748 5746 5744 5743 5742 5740 5739 5737 5735 5734 5732 5730 5728 5727 5724 5722 5721 5719 5717
5772 5771 5771 5770 5770 5769 5768 5768 5766 5764 5763 5764 5759 5756 5758 5760 5759 5758 5757 5756 5754 5752 5750 5748 5746 5744 5742 5740 5739 5738 5737 5735 5734 5732 5730 5729 5727 5725 5723 5721 5720 5718 5716
5773 5773 5771 5770 5770 5769 5767 5767 5765 5762 5763 5764 5759 5752 5747 5748 5752 5755 5753 5751 5750 5750 5748 5746 5744 5742 5739 5737 5735 5735 5734 5733 5732 5730 5729 5727 5725 5724 5722 5720 5718 5716 5714
5773 5772 5772 5771 5771 5770 5767 5767 5766 5763 5759 5762 5762 5756 5746 5740 5742 5746 5748 5746 5745 5744 5743 5742 5740 5737 5735 5733 5732 5731 5730 5729 5728 5727 5725 5724 5722 5721 5719 5718 5716 5714 5713
5775 5774 5773 5772 5771 5770 5768 5767 5767 5765 5762 5758 5760 5761 5758 5753 5742 5736 5739 5741 5740 5739 5738 5738 5735 5733 5731 5729 5727 5726 5725 5724 5723 5722 5721 5720 5718 5717 5716 5715 5713 5711 5709
5775 5774 5773 5772 5771 5770 5768 5767 5766 5765 5763 5760 5758 5757 5756 5753 5749 5739 5731 5731 5732 5733 5733 5732 5730 5728 5726 5723 5722 5720 5719 5719 5718 5717 5715 5714 5713 5712 5711 5711 5709 5707 5705
5776 5775 5774 5772 5771 5770 5769 5768 5766 5765 5763 5761 5759 5757 5753 5749 5744 5740 5733 5729 5726 5725 5726 5725 5724 5722 5720 5718 5717 5715 5714 5713 5712 5710 5709 5708 5707 5706 5705 5704 5703 5701 5700
5774 5773 5774 5772 5770 5770 5769 5767 5766 5764 5762 5760 5758 5757 5755 5752 5749 5744 5735 5729 5724 5721 5721 5719 5718 5717 5715 5712 5710 5709 5707 5706 5705 5704 5702 5701 5700 5699 5698 5697 5695 5694 5692
5775 5774 5773 5771 5770 5769 5768 5766 5764 5762 5761 5759 5758 5756 5754 5752 5750 5745 5739 5731 5721 5717 5715 5713 5712 5711 5709 5707 5704 5703 5701 5699 5698 5696 5695 5693 5692 5690 5689 5688 5687 5685 5683
5777 5775 5773 5770 5769 5767 5766 5764 5761 5760 5759 5757 5756 5754 5751 5750 5748 5745 5742 5736 5726 5715 5708 5707 5706 5705 5704 5701 5699 5696 5694 5692 5690 5689 5687 5686 5684 5682 5681 5679 5678 5676 5674
5775 5773 5771 5769 5767 5766 5764 5762 5759 5757 5755 5754 5753 5750 5748 5747 5745 5743 5740 5737 5731 5721 5710 5706 5703 5702 5700 5697 5694 5691 5688 5686 5683 5682 5680 5678 5676 5674 5672 5670 5669 5667 5664
5774 5771 5769 5767 5765 5763 5762 5759 5757 5755 5752 5750 5749 5747 5744 5744 5741 5739 5736 5733 5727 5721 5709 5702 5699 5697 5695 5692 5688 5685 5683 5680 5677 5674 5672 5670 5668 5666 5664 5662 5659 5657 5655
5773 5770 5768 5765 5763 5761 5759 5756 5753 5751 5749 5746 5744 5742 5740 5739 5736 5734 5731 5727 5723 5718 5710 5700 5695 5692 5690 5688 5684 5681 5679 5675 5671 5668 5665 5663 5660 5658 5655 5653 5650 5648 5646
5771 5768 5766 5763 5760 5758 5755 5753 5751 5748 5745 5743 5740 5738 5736 5734 5730 5728 5726 5722 5718 5714 5708 5700 5693 5689 5686 5684 5680 5677 5675 5671 5667 5662 5658 5655 5652 5650 5647 5644 5641 5639 5636
5769 5766 5764 5761 5758 5755 5752 5749 5747 5744 5741 5739 5737 5734 5731 5729 5726 5724 5721 5717 5713 5708 5703 5697 5691 5686 5682 5679 5676 5671 5667 5666 5662 5658 5653 5649 5645 5642 5639 5636 5633 5630 5627
5767 5764 5761 5758 5756 5752 5748 5744 5743 5741 5738 5735 5732 5729 5727 5724 5721 5719 5716 5712 5708 5703 5698 5693 5688 5682 5677 5673 5670 5668 5663 5660 5656 5653 5648 5643 5639 5635 5631 5628 5625 5622 5619
5764 5761 5757 5754 5751 5748 5743 5740 5739 5737 5734 5730 5727 5724 5722 5719 5716 5713 5710 5707 5704 5699 5694 5689 5684 5679 5674 5670 5667 5664 5659 5654 5649 5648 5644 5639 5635 5630 5626 5622 5618 5615 5611
5761 5757 5753 5749 5745 5740 5738 5736 5734 5732 5729 5726 5722 5720 5718 5714 5711 5707 5704 5701 5697 5694 5691 5686 5680 5676 5672 5668 5664 5659 5655 5650 5646 5644 5640 5634 5631 5626 5622 5617 5613 5609 5605
5757 5753 5749 5745 5740 5736 5733 5731 5728 5727 5724 5720 5717 5714 5710 5706 5704 5701 5699 5695 5691 5687 5685 5681 5678 5673 5669 5665 5661 5657 5651 5647 5644 5640 5637 5630 5627 5622 5618 5612 5607 5603 5599
5753 5749 5745 5741 5736 5731 5728 5725 5722 5722 5718 5714 5711 5707 5704 5700 5696 5694 5692 5688 5684 5680 5677 5675 5672 5668 5664 5659 5655 5651 5646 5641 5636 5633 5632 5626 5622 5617 5612 5607 5602 5598 5594
5749 5745 5741 5738 5733 5727 5723 5720 5717 5717 5713 5709 5705 5701 5697 5693 5690 5687 5685 5681 5677 5674 5671 5668 5664 5660 5657 5653 5649 5645 5641 5636 5631 5627 5625 5621 5617 5612 5606 5603 5598 5593 5588